Location: Noordwijk
(52.2400°N, 4.4500°E)
Time: 01:58:45
(UTC+00:00)

PCSat - Pass Details

Date: 10 December 2022
Orbit: 785 x 793 km, 67.0° (Epoch: 28 January)

Event Time Altitude Azimuth Distance (km) Brightness Sun altitude
Rises 18:12:07 0° 221° (SW) 3,272 13.5 -23.5°
Reaches altitude 10° 18:14:31 10° 222° (SW) 2,348 12.6 -23.9°
Maximum altitude 18:19:55 79° 310° (NW) 811 9.6 -24.7°
Enters shadow 18:21:10 54° 24° (NNE) 961 9.7 -24.9°
